[[{"header":{"parameterUnit":"m.s-1","parameterCategory":1,"la1":30.2991,"la2":30.254,"lo1":-89.0895,"lo2":-89.0444,"dy":0.0017,"dx":0.0017,"nx":28,"ny":28,"refTime":"2025-05-24T03:00:00:Z","depth":0,"parameterNumber":2,"parameterNumberName":"U-component_of_WINDS"},"data":[0,0,0,0,0,0,0,0,0,0,0,0,0,0,0,0,0,0,0,0,0,0,0,0,0,0,0,0,0,0,0,0,0,0,0,0,0,0,0,0,0,0,0,0,0,0,0,0,0,0,0,0,0,0,0,0,0,0,-1.6634,-1.6634,0,-1.6607,-1.6607,-1.6606,-1.6563,-1.6562,-1.6562,-1.6561,-1.6533,-1.6533,-1.6533,0,0,0,0,0,0,0,0,0,0,0,0,0,-1.6651,-1.6651,-1.6634,-1.6634,-1.6634,-1.6607,-1.6607,-1.6606,-1.6563,-1.6562,-1.6561,-1.656,-1.6533,-1.6533,-1.6533,0,0,0,0,0,0,0,0,0,0,0,0,0,-1.6636,-1.6651,-1.6634,-1.6609,-1.6607,-1.6607,-1.6607,-1.6606,-1.6563,-1.6562,-1.6561,-1.656,-1.6533,-1.6533,-1.6533,-1.6556,0,0,-1.6533,-1.6533,0,0,0,0,0,0,0,0,-1.6637,-1.6635,-1.6613,-1.6611,-1.6608,-1.6587,-1.6602,-1.6589,-1.6564,-1.658,-1.6561,-1.6559,-1.6552,-1.655,-1.6548,-1.6555,-1.6554,-1.6533,-1.6533,-1.6533,-1.6533,0,0,0,0,0,0,0,-1.6638,-1.6636,-1.6624,-1.6613,-1.661,-1.6599,-1.6596,-1.66,-1.6573,-1.6578,-1.6575,-1.6572,-1.655,-1.6548,-1.6547,-1.6553,-1.6533,-1.6533,-1.6533,-1.6533,-1.6579,-1.658,0,0,0,0,0,0,-1.6642,-1.6637,-1.6624,-1.6623,-1.662,-1.66,-1.6596,-1.6595,-1.6573,-1.6568,-1.6574,-1.6571,-1.6549,-1.6547,-1.6546,-1.6571,-1.6533,-1.6533,-1.6533,-1.6578,-1.6579,-1.6581,0,0,0,0,0,0,-1.6643,-1.6642,-1.6626,-1.6629,-1.6626,-1.6601,-1.66,-1.6595,-1.6593,-1.6569,-1.6564,-1.6576,-1.6548,-1.6546,-1.6554,-1.657,-1.6533,-1.6533,-1.6576,-1.6578,-1.658,-1.6623,0,0,0,0,0,0,-1.6644,-1.6642,-1.665,-1.663,-1.6626,-1.6634,-1.6601,-1.6595,-1.6593,-1.6589,-1.657,-1.6566,-1.6546,-1.6554,-1.6554,-1.6569,-1.6533,-1.6575,-1.6577,-1.6579,-1.662,-1.6626,-1.6632,0,0,0,0,0,-1.6644,-1.6663,-1.6651,-1.665,-1.6636,-1.6635,-1.6633,-1.6611,-1.6594,-1.6602,-1.6587,-1.6566,-1.6569,-1.6556,-1.6555,-1.657,-1.6574,-1.6576,-1.6579,-1.6618,-1.6625,-1.6632,0,0,0,0,0,0,-1.6686,-1.666,-1.6646,-1.6659,-1.665,-1.6628,-1.6637,-1.6619,-1.6614,-1.6611,-1.6583,-1.6579,-1.6591,-1.6582,-1.6568,-1.6592,-1.6568,-1.6571,-1.6597,-1.6604,-1.661,-1.6611,-1.6533,0,0,0,0,0,-1.6697,-1.6698,-1.6676,-1.6689,-1.6686,-1.6663,-1.6661,-1.6645,-1.6634,-1.663,-1.6615,-1.6606,-1.6605,-1.6604,-1.6602,-1.6619,-1.6615,-1.663,-1.6635,-1.664,-1.6643,-1.6652,-1.6658,-1.659,-1.659,-1.659,0,0,-1.6719,-1.6705,-1.6708,-1.6698,-1.6688,-1.6691,-1.6659,-1.6663,-1.6664,-1.663,-1.6637,-1.6627,-1.6614,-1.6628,-1.6633,-1.662,-1.6661,-1.6644,-1.6648,-1.6647,-1.6655,-1.6662,-1.6668,-1.6592,-1.6591,-1.6591,0,0,-1.6761,-1.675,-1.6761,-1.6752,-1.6739,-1.6724,-1.6727,-1.6708,-1.67,-1.6706,-1.6681,-1.6683,-1.6681,-1.6673,-1.6669,-1.671,-1.669,-1.671,-1.6739,-1.6748,-1.6754,-1.6758,-1.6773,-1.6778,-1.6713,-1.6713,-1.6713,0,-1.679,-1.6792,-1.6768,-1.6774,-1.677,-1.674,-1.6751,-1.6744,-1.6731,-1.6729,-1.6715,-1.6713,-1.6703,-1.6714,-1.6724,-1.6722,-1.6724,-1.6711,-1.6755,-1.6759,-1.6763,-1.6776,-1.6782,-1.6715,-1.6715,-1.6715,-1.6715,0,-1.6828,-1.6831,-1.6841,-1.6829,-1.6826,-1.6834,-1.6813,-1.6813,-1.6798,-1.6785,-1.6792,-1.6779,-1.6774,-1.6775,-1.676,-1.6785,-1.6777,-1.676,-1.6735,-1.6773,-1.6785,-1.6789,-1.6719,-1.6718,-1.6717,-1.6717,0,0,-1.6894,-1.687,-1.6874,-1.6868,-1.6852,-1.6853,-1.6861,-1.6855,-1.6857,-1.6849,-1.6855,-1.6855,-1.6838,-1.6834,-1.6818,-1.6826,-1.6859,-1.6807,-1.6807,-1.6817,-1.6886,-1.6899,-1.6905,-1.6847,-1.6848,-1.6849,-1.6887,0,-1.6931,-1.6942,-1.6921,-1.6937,-1.6938,-1.6911,-1.6917,-1.6909,-1.6897,-1.6897,-1.6884,-1.6884,-1.6863,-1.686,-1.6867,-1.6854,-1.6873,-1.6851,-1.6851,-1.6852,-1.6854,-1.6911,-1.6924,-1.6961,-1.6891,-1.6892,-1.6893,0,-1.6976,-1.6971,-1.6986,-1.697,-1.697,-1.6976,-1.697,-1.6971,-1.6961,-1.6952,-1.6948,-1.6929,-1.6935,-1.6913,-1.6921,-1.6907,-1.6907,-1.69,-1.6901,-1.6899,-1.6874,-1.691,-1.6972,-1.6978,-1.69,-1.6899,-1.6899,0,-1.7022,-1.7019,-1.7028,-1.7024,-1.7005,-1.701,-1.7003,-1.6992,-1.699,-1.6985,-1.6984,-1.6981,-1.6978,-1.6976,-1.6957,-1.6942,-1.6968,-1.6944,-1.6961,-1.6962,-1.6967,-1.6966,-1.7028,-1.6968,-1.6968,-1.6968,-1.6968,0,-1.7065,-1.7076,-1.7048,-1.7054,-1.7065,-1.7042,-1.7054,-1.7044,-1.7035,-1.7038,-1.7015,-1.7018,-1.6994,-1.6995,-1.6981,-1.699,-1.699,-1.6983,-1.6978,-1.6984,-1.6985,-1.6982,-1.6979,-1.6969,-1.6969,-1.6969,-1.6968,0,-1.7118,-1.71,-1.7107,-1.709,-1.7085,-1.7095,-1.7079,-1.7084,-1.7071,-1.7076,-1.7076,-1.7056,-1.7057,-1.7038,-1.7035,-1.7025,-1.7041,-1.7033,-1.7044,-1.7041,-1.7059,-1.7058,-1.7121,-1.7128,-1.7064,-1.7065,-1.7065,0,-1.7146,-1.7153,-1.7137,-1.7137,-1.7131,-1.7132,-1.7131,-1.7109,-1.7109,-1.7099,-1.7105,-1.7103,-1.7101,-1.7103,-1.7089,-1.7086,-1.7077,-1.71,-1.7077,-1.7083,-1.7077,-1.7077,-1.7077,-1.7105,-1.7105,-1.7106,-1.7107,0,-1.7199,-1.7189,-1.7188,-1.7184,-1.7183,-1.7178,-1.7173,-1.7175,-1.7151,-1.7152,-1.7152,-1.7151,-1.7148,-1.7147,-1.7142,-1.7135,-1.7117,-1.7114,-1.7118,-1.7123,-1.713,-1.7126,-1.7057,-1.7112,-1.7112,-1.7111,-1.7111,-1.7111,-1.7239,-1.7245,-1.7234,-1.7234,-1.7227,-1.7223,-1.7226,-1.7214,-1.7214,-1.721,-1.7198,-1.72,-1.7191,-1.7183,-1.7177,-1.7179,-1.7168,-1.7174,-1.7175,-1.7176,-1.718,-1.713,-1.7178,-1.7178,-1.7178,-1.7178,-1.7178,0,-1.729,-1.7282,-1.7282,-1.7275,-1.7275,-1.7258,-1.7252,-1.7253,-1.7255,-1.7248,-1.7246,-1.7247,-1.7247,-1.7233,-1.723,-1.7235,-1.7227,-1.7235,-1.7234,-1.7233,-1.719,-1.7186,-1.7241,-1.7241,-1.7241,-1.7241,-1.7241,-1.7241,-1.7317,-1.7325,-1.7315,-1.7321,-1.7313,-1.7315,-1.7312,-1.7308,-1.7303,-1.7304,-1.7304,-1.7295,-1.7285,-1.7282,-1.7281,-1.7277,-1.7277,-1.7288,-1.7282,-1.7242,-1.7235,-1.723,-1.7226,-1.7289,-1.7289,-1.7324,-1.7324,-1.7325]},{"header":{"parameterUnit":"m.s-1","parameterCategory":1,"la1":30.2991,"la2":30.254,"lo1":-89.0895,"lo2":-89.0444,"dy":0.0017,"dx":0.0017,"nx":28,"ny":28,"refTime":"2025-05-24T03:00:00:Z","depth":0,"parameterNumber":3,"parameterNumberName":"V-component_of_WINDS"},"data":[0,0,0,0,0,0,0,0,0,0,0,0,0,0,0,0,0,0,0,0,0,0,0,0,0,0,0,0,0,0,0,0,0,0,0,0,0,0,0,0,0,0,0,0,0,0,0,0,0,0,0,0,0,0,0,0,0,0,4.5648,4.5648,0,4.5673,4.5674,4.5674,4.5696,4.5697,4.5697,4.5697,4.572,4.572,4.572,0,0,0,0,0,0,0,0,0,0,0,0,0,4.5618,4.5618,4.5648,4.5648,4.5649,4.5673,4.5674,4.5674,4.5696,4.5697,4.5697,4.5697,4.572,4.572,4.572,0,0,0,0,0,0,0,0,0,0,0,0,0,4.5636,4.5618,4.5648,4.5663,4.5664,4.5673,4.5674,4.5674,4.5696,4.5697,4.5697,4.5698,4.5719,4.572,4.572,4.5715,0,0,4.5722,4.5722,0,0,0,0,0,0,0,0,4.5635,4.5637,4.566,4.5662,4.5664,4.5682,4.5671,4.5688,4.5696,4.5684,4.5697,4.5698,4.5707,4.5708,4.5712,4.5716,4.5717,4.5722,4.5722,4.5723,4.5723,0,0,0,0,0,0,0,4.5633,4.5636,4.5658,4.5661,4.5663,4.5668,4.5671,4.5675,4.5693,4.5685,4.5687,4.569,4.5708,4.5711,4.5713,4.5718,4.5722,4.5722,4.5723,4.5723,4.5722,4.5722,0,0,0,0,0,0,4.563,4.5635,4.5657,4.5659,4.565,4.5668,4.5672,4.5676,4.5693,4.5696,4.5689,4.5691,4.571,4.5712,4.5714,4.5711,4.5723,4.5723,4.5723,4.5723,4.5722,4.5722,0,0,0,0,0,0,4.5629,4.5632,4.5656,4.5647,4.5651,4.5668,4.5673,4.5676,4.568,4.5696,4.5699,4.569,4.5711,4.5713,4.5716,4.5712,4.5723,4.5724,4.5723,4.5723,4.5722,4.5703,0,0,0,0,0,0,4.5629,4.5632,4.563,4.5647,4.5651,4.5658,4.5673,4.5676,4.5681,4.5683,4.5697,4.57,4.5711,4.5715,4.5716,4.5713,4.5724,4.5723,4.5723,4.5722,4.5704,4.5702,4.5701,0,0,0,0,0,4.5627,4.5622,4.563,4.5632,4.565,4.5658,4.566,4.5674,4.5681,4.5679,4.569,4.57,4.5712,4.5715,4.5717,4.5713,4.5724,4.5723,4.5722,4.5705,4.5703,4.5701,0,0,0,0,0,0,4.5602,4.5625,4.5633,4.5633,4.5644,4.5662,4.566,4.567,4.5678,4.5679,4.5695,4.5698,4.57,4.5707,4.5709,4.5711,4.5719,4.5719,4.5706,4.5703,4.5702,4.57,4.5725,0,0,0,0,0,4.5597,4.5602,4.5622,4.562,4.5625,4.5642,4.5646,4.5656,4.5667,4.5671,4.5681,4.5691,4.5697,4.5701,4.5707,4.5706,4.571,4.5705,4.5703,4.5701,4.57,4.5702,4.57,4.5719,4.572,4.572,0,0,4.5585,4.5599,4.5601,4.5615,4.5625,4.563,4.5645,4.5649,4.5653,4.5671,4.5675,4.5684,4.5695,4.5697,4.5698,4.5702,4.5696,4.57,4.5698,4.5699,4.5701,4.5699,4.5698,4.5719,4.5719,4.5719,0,0,4.5568,4.5578,4.5579,4.5589,4.5603,4.5615,4.5615,4.5632,4.5639,4.5644,4.5658,4.5663,4.5673,4.5681,4.5687,4.5676,4.5686,4.5678,4.5667,4.5669,4.5667,4.5666,4.5663,4.5662,4.5677,4.5677,4.5677,0,4.5551,4.556,4.5577,4.5582,4.5589,4.5607,4.5609,4.5617,4.5632,4.5636,4.5642,4.5657,4.5666,4.5671,4.5669,4.5672,4.5673,4.5676,4.5666,4.5665,4.5664,4.5662,4.5661,4.5676,4.5676,4.5676,4.5676,0,4.554,4.5547,4.5546,4.5563,4.5569,4.5572,4.559,4.5594,4.5605,4.5616,4.5622,4.5634,4.5644,4.5646,4.5655,4.5653,4.5656,4.5663,4.5673,4.5661,4.5659,4.5658,4.5675,4.5675,4.5675,4.5675,0,0,4.5505,4.5534,4.5533,4.5542,4.5561,4.5566,4.5571,4.5583,4.5587,4.5597,4.5602,4.5612,4.562,4.5627,4.5637,4.5639,4.5632,4.5647,4.5648,4.5644,4.5631,4.5625,4.5624,4.5638,4.5638,4.5638,4.5631,0,4.5491,4.5501,4.5518,4.5522,4.5529,4.5549,4.5553,4.5565,4.5576,4.5583,4.5595,4.5603,4.5613,4.5617,4.562,4.5632,4.5629,4.5633,4.5643,4.5643,4.5639,4.5623,4.5616,4.5608,4.563,4.563,4.563,0,4.5475,4.5487,4.5493,4.5514,4.5518,4.5521,4.5535,4.5541,4.5556,4.5564,4.5573,4.5586,4.5592,4.5601,4.561,4.5612,4.5618,4.5625,4.5625,4.5626,4.5635,4.5624,4.5606,4.5605,4.5628,4.5628,4.5629,0,4.545,4.5468,4.5474,4.5481,4.5505,4.5508,4.5518,4.5533,4.554,4.5552,4.5557,4.5569,4.5575,4.5584,4.56,4.5604,4.5608,4.5617,4.5615,4.5615,4.5614,4.5614,4.5597,4.5617,4.5617,4.5617,4.5617,0,4.5433,4.5436,4.5464,4.5467,4.5472,4.5492,4.5496,4.5507,4.5522,4.5528,4.5545,4.5551,4.5571,4.5579,4.5592,4.5598,4.5601,4.5608,4.5611,4.5606,4.5606,4.561,4.5611,4.5617,4.5617,4.5617,4.5617,0,4.5405,4.5424,4.5433,4.5456,4.5462,4.5465,4.5485,4.5489,4.5503,4.5511,4.5514,4.5535,4.5546,4.5563,4.5578,4.5587,4.5591,4.5596,4.5587,4.5589,4.5586,4.5586,4.5571,4.557,4.559,4.559,4.559,0,4.5393,4.5396,4.5421,4.5427,4.5438,4.5447,4.5456,4.5476,4.5483,4.5502,4.5505,4.5518,4.5529,4.5546,4.5562,4.5574,4.558,4.5574,4.5582,4.5578,4.5581,4.5581,4.5582,4.5572,4.5571,4.5571,4.5571,0,4.5369,4.5379,4.5391,4.5406,4.5416,4.5429,4.5442,4.5447,4.547,4.5478,4.549,4.5499,4.5517,4.5529,4.5545,4.5555,4.5567,4.5569,4.5569,4.5564,4.5559,4.5563,4.5582,4.5569,4.5569,4.5569,4.5569,4.5569,4.5349,4.5354,4.5373,4.5386,4.5399,4.5412,4.5419,4.5434,4.5445,4.5462,4.5473,4.5486,4.5502,4.5525,4.5534,4.5544,4.5549,4.5549,4.5549,4.5549,4.5548,4.5558,4.5547,4.5547,4.5547,4.5547,4.5547,0,4.5327,4.5341,4.5353,4.5373,4.5384,4.5396,4.5413,4.5421,4.5432,4.5447,4.5459,4.5474,4.5487,4.5506,4.552,4.5525,4.5531,4.5528,4.5528,4.553,4.5542,4.5541,4.5523,4.5523,4.5523,4.5523,4.5523,4.5523,4.5317,4.5326,4.5339,4.5356,4.537,4.5383,4.5391,4.5404,4.5417,4.5434,4.5445,4.5458,4.5475,4.5492,4.5504,4.551,4.5514,4.551,4.5517,4.5527,4.5529,4.5531,4.553,4.5511,4.5511,4.5504,4.5504,4.5504]}]]